Location: Tucson
(32.2220°N, 110.9260°W)
Time: 01:09:22
(UTC-07:00)

ISS - Visible Passes

Search period start: 22 October 2018 00:00
Search period end: 01 November 2018 00:00
Orbit: 402 x 408 km, 51.6° (Epoch: 22 October)

Date Brightness Start Highest point End Pass type
(mag) Time Alt. Az. Time Alt. Az. Time Alt. Az.
22 Oct -0.4 06:02:08 10° SSE 06:03:25 12° SE 06:04:42 10° ESE visible
24 Oct -2.0 05:52:41 10° SSW 05:55:41 34° SE 05:58:41 10° ENE visible
25 Oct -0.9 05:01:46 10° SSE 05:03:50 16° SE 05:05:55 10° E visible
26 Oct -3.9 05:44:48 10° SW 05:48:02 71° NW 05:51:18 10° NE visible
27 Oct -3.0 04:55:56 47° SE 04:56:03 47° SE 04:59:13 10° ENE visible
28 Oct -2.6 05:39:37 22° WNW 05:40:31 25° NW 05:43:19 10° NNE visible
29 Oct -1.7 04:50:21 21° NNE 04:50:21 21° NNE 04:51:35 10° NE visible
30 Oct -1.5 05:33:35 12° NNW 05:33:35 12° NNW 05:34:31 10° N visible
